EDW372 LSZH-LCLK

Flight info

Callsign EDW372
Flight time N/A
Altitude 29000
Route DEGES Z2 TUNUM/N0481F370 Z204 GEDSO DCT VEKEN DCT NISVA N131 RODIP UN131 KULAR UT39 TOMBI M855 DASNI M601 BONEK
Aircraft A343/H-SDE2E3FGHIJ4J5M1RWXY/LB1D1

Departure

Time N/A
Airport Zürich Airport (LSZH)

Arrival

Time 2026-05-06 17:23
Airport Larnaca International Airport (LCLK)
Time Latitude Longitude Altitude Speed Heading
2026-05-06 15:36 43.76082 20.98486 36922 ft 503 kts 121°
2026-05-06 15:36 43.74331 21.02640 36925 ft 504 kts 121°
2026-05-06 15:37 43.70785 21.11030 36921 ft 504 kts 122°
2026-05-06 15:37 43.67245 21.19386 36926 ft 504 kts 122°
2026-05-06 15:38 43.63699 21.27728 36923 ft 504 kts 121°
2026-05-06 15:38 43.60158 21.36036 36924 ft 505 kts 121°
2026-05-06 15:39 43.56592 21.44380 36929 ft 505 kts 121°
2026-05-06 15:39 43.53014 21.52727 36932 ft 505 kts 122°
2026-05-06 15:40 43.49434 21.61054 36936 ft 505 kts 121°
2026-05-06 15:40 43.45868 21.69326 36939 ft 505 kts 122°
2026-05-06 15:41 43.42276 21.77632 36937 ft 505 kts 122°
2026-05-06 15:41 43.38674 21.85938 36931 ft 505 kts 122°
2026-05-06 15:42 43.35070 21.94226 36937 ft 505 kts 122°
2026-05-06 15:42 43.31482 22.02454 36939 ft 505 kts 122°
2026-05-06 15:43 43.27868 22.10718 36940 ft 505 kts 122°
2026-05-06 15:43 43.24243 22.18983 36943 ft 505 kts 122°
2026-05-06 15:44 43.20610 22.27245 36944 ft 506 kts 122°
2026-05-06 15:44 43.16996 22.35436 36959 ft 506 kts 122°
2026-05-06 15:45 43.13356 22.43666 36960 ft 506 kts 122°
2026-05-06 15:45 43.09697 22.51917 36965 ft 507 kts 122°
2026-05-06 15:46 43.06038 22.60144 36974 ft 507 kts 122°
2026-05-06 15:46 43.02366 22.68376 36972 ft 507 kts 122°
2026-05-06 15:47 42.98701 22.76542 36975 ft 508 kts 123°
2026-05-06 15:47 42.94116 22.83816 36979 ft 506 kts 136°
2026-05-06 15:48 42.89025 22.90435 36984 ft 506 kts 138°
2026-05-06 15:48 42.83859 22.96969 36982 ft 507 kts 138°
2026-05-06 15:49 42.78729 23.03463 36981 ft 507 kts 138°
2026-05-06 15:49 42.73569 23.10013 36990 ft 507 kts 138°
2026-05-06 15:50 42.68413 23.16553 36992 ft 507 kts 138°
2026-05-06 15:50 42.63253 23.23084 36994 ft 508 kts 138°
2026-05-06 15:51 42.58120 23.29563 36991 ft 508 kts 138°
2026-05-06 15:51 42.52935 23.36093 36992 ft 509 kts 138°
2026-05-06 15:52 42.47744 23.42615 37000 ft 509 kts 138°
2026-05-06 15:52 42.42544 23.49132 37009 ft 510 kts 138°
2026-05-06 15:53 42.37364 23.55610 37011 ft 511 kts 138°
2026-05-06 15:53 42.32147 23.62117 37018 ft 511 kts 138°
2026-05-06 15:54 42.26939 23.68581 37015 ft 511 kts 139°
2026-05-06 15:54 42.21665 23.74989 37015 ft 511 kts 139°
2026-05-06 15:55 42.16407 23.81346 37014 ft 511 kts 139°
2026-05-06 15:55 42.11114 23.87751 37010 ft 511 kts 139°
2026-05-06 15:56 42.05827 23.94145 37012 ft 511 kts 139°
2026-05-06 15:56 42.00548 24.00515 37019 ft 511 kts 139°
2026-05-06 15:57 41.95260 24.06894 37025 ft 511 kts 139°
2026-05-06 15:57 41.89982 24.13229 37025 ft 513 kts 139°
2026-05-06 15:58 41.84649 24.19617 37018 ft 514 kts 139°
2026-05-06 15:58 41.79304 24.26006 37026 ft 515 kts 139°
2026-05-06 15:59 41.73958 24.32382 37029 ft 515 kts 139°
2026-05-06 15:59 41.68639 24.38713 37045 ft 515 kts 139°
2026-05-06 16:00 41.63288 24.45069 37034 ft 516 kts 139°
2026-05-06 16:00 41.57910 24.51440 37035 ft 517 kts 139°
2026-05-06 16:01 41.52530 24.57799 37035 ft 517 kts 139°
2026-05-06 16:01 41.47149 24.64143 37035 ft 517 kts 139°
2026-05-06 16:02 41.41794 24.70445 37035 ft 517 kts 139°
2026-05-06 16:02 41.36416 24.76809 37032 ft 517 kts 139°
2026-05-06 16:03 41.31046 24.83170 37025 ft 516 kts 139°
2026-05-06 16:03 41.25679 24.89507 37032 ft 516 kts 139°
2026-05-06 16:04 41.20331 24.95806 37031 ft 517 kts 139°
2026-05-06 16:04 41.14949 25.02130 37036 ft 517 kts 138°
2026-05-06 16:05 41.09554 25.08455 37032 ft 518 kts 139°
2026-05-06 16:05 41.04143 25.14783 37034 ft 519 kts 139°
2026-05-06 16:06 40.98765 25.21058 37034 ft 519 kts 139°
2026-05-06 16:06 40.93344 25.27369 37039 ft 519 kts 139°
2026-05-06 16:07 40.87916 25.33676 37052 ft 519 kts 139°
2026-05-06 16:07 40.82483 25.39973 37043 ft 520 kts 139°
2026-05-06 16:08 40.77354 25.46604 37041 ft 520 kts 131°
2026-05-06 16:08 40.72605 25.53774 37044 ft 520 kts 130°
2026-05-06 16:09 40.67897 25.61020 37040 ft 520 kts 130°
2026-05-06 16:09 40.63189 25.68250 37055 ft 520 kts 130°
2026-05-06 16:10 40.58461 25.75470 37051 ft 522 kts 130°
2026-05-06 16:10 40.53747 25.82640 37050 ft 522 kts 130°
2026-05-06 16:11 40.48997 25.89851 37057 ft 522 kts 130°
2026-05-06 16:11 40.44213 25.97036 37060 ft 522 kts 130°
2026-05-06 16:12 40.39406 26.04187 37059 ft 524 kts 130°
2026-05-06 16:12 40.34613 26.11313 37058 ft 524 kts 130°
2026-05-06 16:13 40.29795 26.18471 37065 ft 524 kts 130°
2026-05-06 16:13 40.24973 26.25622 37053 ft 524 kts 130°
2026-05-06 16:14 40.20169 26.32733 37048 ft 525 kts 130°
2026-05-06 16:14 40.15327 26.39880 37046 ft 525 kts 130°
2026-05-06 16:15 40.10418 26.46926 37047 ft 526 kts 134°
2026-05-06 16:15 40.05166 26.53575 37065 ft 526 kts 136°
2026-05-06 16:16 39.99861 26.60175 37059 ft 527 kts 135°
2026-05-06 16:16 39.94635 26.66788 37076 ft 528 kts 135°
2026-05-06 16:17 39.89387 26.73484 37076 ft 528 kts 134°
2026-05-06 16:17 39.84147 26.80170 37054 ft 528 kts 134°
2026-05-06 16:18 39.78897 26.86848 37048 ft 528 kts 134°
2026-05-06 16:18 39.73628 26.93499 37051 ft 529 kts 135°
2026-05-06 16:19 39.68288 27.00030 37052 ft 531 kts 136°
2026-05-06 16:19 39.62902 27.06575 37049 ft 530 kts 136°
2026-05-06 16:20 39.57520 27.13132 37047 ft 531 kts 136°
2026-05-06 16:20 39.52150 27.19680 37068 ft 531 kts 136°
2026-05-06 16:21 39.47194 27.26655 37062 ft 530 kts 128°
2026-05-06 16:21 39.42480 27.33981 37061 ft 529 kts 128°
2026-05-06 16:22 39.37803 27.41336 37052 ft 529 kts 128°
2026-05-06 16:22 39.33122 27.48674 37071 ft 529 kts 128°
2026-05-06 16:23 39.28448 27.55948 37049 ft 530 kts 128°
2026-05-06 16:23 39.23737 27.63256 37043 ft 530 kts 128°
2026-05-06 16:24 39.19013 27.70571 37045 ft 530 kts 128°
2026-05-06 16:24 39.14288 27.77873 37033 ft 530 kts 128°
2026-05-06 16:25 39.09588 27.85119 37054 ft 531 kts 128°
2026-05-06 16:25 39.04859 27.92407 37051 ft 531 kts 128°
2026-05-06 16:26 39.00119 27.99680 37055 ft 531 kts 128°
2026-05-06 16:26 38.95397 28.06904 37069 ft 531 kts 128°
2026-05-06 16:27 38.90646 28.14162 37058 ft 531 kts 128°
2026-05-06 16:27 38.85887 28.21417 37058 ft 531 kts 129°
2026-05-06 16:28 38.81127 28.28658 37057 ft 531 kts 129°
2026-05-06 16:28 38.76361 28.35893 37063 ft 531 kts 129°
2026-05-06 16:29 38.71620 28.43071 37068 ft 531 kts 129°
2026-05-06 16:29 38.66853 28.50273 37066 ft 531 kts 129°
2026-05-06 16:30 38.62881 28.56261 37070 ft 531 kts 129°
2026-05-06 16:30 38.56942 28.64258 37073 ft 531 kts 142°
2026-05-06 16:31 38.51037 28.69823 37074 ft 531 kts 145°
2026-05-06 16:31 38.44970 28.75222 37075 ft 532 kts 146°
2026-05-06 16:32 38.38882 28.80605 37078 ft 532 kts 146°
2026-05-06 16:32 38.32804 28.86003 37081 ft 532 kts 146°
2026-05-06 16:33 38.26732 28.91401 37083 ft 533 kts 146°
2026-05-06 16:34 38.17669 28.99445 37080 ft 533 kts 146°
2026-05-06 16:34 38.11606 29.04811 37084 ft 533 kts 146°
2026-05-06 16:35 38.05519 29.10186 37086 ft 533 kts 146°
2026-05-06 16:35 37.99446 29.15538 37090 ft 533 kts 146°
2026-05-06 16:36 37.93400 29.20856 37085 ft 533 kts 146°
2026-05-06 16:36 37.87298 29.26210 37111 ft 534 kts 146°
2026-05-06 16:37 37.81201 29.31558 37098 ft 533 kts 146°
2026-05-06 16:37 37.75111 29.36887 37104 ft 532 kts 146°
2026-05-06 16:38 37.69023 29.42197 37104 ft 532 kts 146°
2026-05-06 16:38 37.62967 29.47472 37098 ft 532 kts 146°
2026-05-06 16:39 37.56877 29.52767 37108 ft 531 kts 146°
2026-05-06 16:39 37.50793 29.58047 37111 ft 530 kts 147°
2026-05-06 16:40 37.44731 29.63296 37106 ft 528 kts 147°
2026-05-06 16:40 37.38721 29.68490 37097 ft 528 kts 147°
2026-05-06 16:41 37.32668 29.73714 37103 ft 528 kts 147°
2026-05-06 16:41 37.26615 29.78936 37104 ft 528 kts 147°
2026-05-06 16:42 37.20549 29.84151 37101 ft 528 kts 147°
2026-05-06 16:42 37.14534 29.89314 37096 ft 527 kts 147°
2026-05-06 16:43 37.08479 29.94504 37095 ft 528 kts 147°
2026-05-06 16:43 37.02418 29.99696 37095 ft 529 kts 147°
2026-05-06 16:44 36.96338 30.04895 37088 ft 529 kts 147°
2026-05-06 16:44 36.90263 30.10079 37102 ft 529 kts 147°
2026-05-06 16:45 36.84235 30.15214 37088 ft 528 kts 147°
2026-05-06 16:45 36.78145 30.20384 37080 ft 529 kts 148°
2026-05-06 16:46 36.72045 30.25545 37083 ft 530 kts 148°
2026-05-06 16:46 36.65946 30.30696 37081 ft 529 kts 148°
2026-05-06 16:47 36.59895 30.35797 37076 ft 530 kts 148°
2026-05-06 16:47 36.53810 30.40922 37076 ft 530 kts 148°
2026-05-06 16:48 36.47689 30.46065 37076 ft 530 kts 148°
2026-05-06 16:48 36.41579 30.51188 37076 ft 530 kts 148°
2026-05-06 16:49 36.35505 30.56272 37068 ft 530 kts 148°
2026-05-06 16:49 36.29381 30.61387 37071 ft 530 kts 148°
2026-05-06 16:50 36.23269 30.66483 37069 ft 529 kts 148°
2026-05-06 16:50 36.17196 30.71537 37062 ft 529 kts 148°
2026-05-06 16:51 36.11085 30.76612 37067 ft 529 kts 148°
2026-05-06 16:51 36.04734 30.81098 37069 ft 523 kts 162°
2026-05-06 16:51 36.01270 30.82341 37049 ft 515 kts 174°
2026-05-06 16:52 35.97734 30.82876 37068 ft 511 kts 180°
2026-05-06 16:52 35.90650 30.83392 37069 ft 510 kts 182°
2026-05-06 16:53 35.83603 30.83738 37067 ft 510 kts 182°
2026-05-06 16:53 35.76520 30.84114 37065 ft 510 kts 182°
2026-05-06 16:54 35.69446 30.85004 37065 ft 517 kts 169°
2026-05-06 16:54 35.66053 30.86539 37066 ft 524 kts 156°
2026-05-06 16:54 35.63004 30.88991 37069 ft 529 kts 141°
2026-05-06 16:54 35.60492 30.92302 37066 ft 531 kts 126°
2026-05-06 16:55 35.58704 30.96268 37073 ft 531 kts 110°
2026-05-06 16:55 35.56585 31.04885 37067 ft 532 kts 106°
2026-05-06 16:56 35.54421 31.13591 37067 ft 533 kts 106°
2026-05-06 16:56 35.52220 31.22265 36880 ft 527 kts 106°
2026-05-06 16:56 35.51130 31.26523 36633 ft 519 kts 107°
2026-05-06 16:57 35.50055 31.30712 36390 ft 512 kts 107°
2026-05-06 16:57 35.48986 31.34875 36147 ft 512 kts 106°
2026-05-06 16:57 35.47914 31.39044 35863 ft 514 kts 106°
2026-05-06 16:57 35.46849 31.43182 35256 ft 516 kts 106°
2026-05-06 16:58 35.45764 31.47390 34548 ft 520 kts 106°
2026-05-06 16:58 35.44670 31.51632 33749 ft 524 kts 105°
2026-05-06 16:58 35.43566 31.55904 32912 ft 526 kts 106°
2026-05-06 16:58 35.42458 31.60185 32119 ft 528 kts 106°
2026-05-06 16:59 35.41344 31.64480 31399 ft 528 kts 106°
2026-05-06 16:59 35.40233 31.68753 30805 ft 525 kts 106°
2026-05-06 16:59 35.39127 31.72998 30221 ft 520 kts 106°
2026-05-06 16:59 35.38033 31.77190 29571 ft 513 kts 106°
2026-05-06 17:00 35.36967 31.81269 29009 ft 506 kts 107°
2026-05-06 17:00 35.35905 31.85328 28427 ft 498 kts 106°
2026-05-06 17:00 35.34852 31.89345 27876 ft 491 kts 106°
2026-05-06 17:00 35.33812 31.93309 27310 ft 485 kts 106°
2026-05-06 17:01 35.32787 31.97211 26758 ft 479 kts 106°
2026-05-06 17:01 35.31771 32.01074 26207 ft 473 kts 106°
2026-05-06 17:01 35.30769 32.04879 25651 ft 468 kts 106°
2026-05-06 17:01 35.29787 32.08611 25164 ft 462 kts 106°
2026-05-06 17:02 35.28816 32.12335 24653 ft 458 kts 106°
2026-05-06 17:02 35.27849 32.16045 24143 ft 456 kts 106°
2026-05-06 17:02 35.26887 32.19726 23603 ft 455 kts 106°
2026-05-06 17:02 35.25921 32.23413 23028 ft 452 kts 106°
2026-05-06 17:03 35.24964 32.27062 22492 ft 449 kts 106°
2026-05-06 17:03 35.24015 32.30674 22003 ft 445 kts 106°
2026-05-06 17:03 35.23069 32.34266 21490 ft 441 kts 106°
2026-05-06 17:03 35.22132 32.37824 20991 ft 438 kts 107°
2026-05-06 17:04 35.21203 32.41345 20486 ft 433 kts 107°
2026-05-06 17:04 35.20293 32.44789 19999 ft 430 kts 107°
2026-05-06 17:04 35.19378 32.48247 19514 ft 426 kts 107°
2026-05-06 17:04 35.18469 32.51678 19032 ft 423 kts 107°
2026-05-06 17:05 35.17563 32.55094 18546 ft 420 kts 107°
2026-05-06 17:05 35.16665 32.58476 18018 ft 417 kts 107°
2026-05-06 17:05 35.15772 32.61835 17511 ft 413 kts 107°
2026-05-06 17:05 35.14887 32.65157 17025 ft 409 kts 107°
2026-05-06 17:06 35.14012 32.68437 16552 ft 405 kts 107°
2026-05-06 17:06 35.13154 32.71649 16081 ft 401 kts 107°
2026-05-06 17:06 35.12294 32.74870 15606 ft 397 kts 107°
2026-05-06 17:06 35.11440 32.78063 15131 ft 394 kts 107°
2026-05-06 17:07 35.10592 32.81228 14657 ft 390 kts 107°
2026-05-06 17:07 35.09752 32.84360 14186 ft 387 kts 107°
2026-05-06 17:07 35.08913 32.87483 13698 ft 385 kts 107°
2026-05-06 17:07 35.08083 32.90571 13204 ft 381 kts 107°
2026-05-06 17:08 35.07261 32.93629 12749 ft 377 kts 107°
2026-05-06 17:08 35.06429 32.96641 12299 ft 373 kts 108°
2026-05-06 17:08 35.05577 32.99576 11843 ft 370 kts 108°
2026-05-06 17:08 35.04720 33.02527 11334 ft 369 kts 108°
2026-05-06 17:09 35.03873 33.05454 10865 ft 366 kts 108°
2026-05-06 17:09 35.03034 33.08359 10521 ft 358 kts 108°
2026-05-06 17:09 35.02237 33.11117 10408 ft 330 kts 108°
2026-05-06 17:09 35.01511 33.13624 10307 ft 299 kts 108°
2026-05-06 17:10 35.00837 33.15968 10183 ft 292 kts 108°
2026-05-06 17:10 35.00149 33.18367 10090 ft 304 kts 108°
2026-05-06 17:10 34.99446 33.20799 10017 ft 303 kts 108°
2026-05-06 17:10 34.98756 33.23180 9640 ft 299 kts 108°
2026-05-06 17:11 34.98070 33.25548 9116 ft 295 kts 108°
2026-05-06 17:11 34.97382 33.27920 8819 ft 296 kts 108°
2026-05-06 17:11 34.96705 33.30257 8461 ft 292 kts 108°
2026-05-06 17:11 34.96031 33.32587 8157 ft 290 kts 108°
2026-05-06 17:12 34.95359 33.34906 7898 ft 288 kts 108°
2026-05-06 17:12 34.94706 33.37146 7704 ft 274 kts 109°
2026-05-06 17:12 34.94075 33.39308 7370 ft 267 kts 109°
2026-05-06 17:12 34.93463 33.41407 6967 ft 256 kts 109°
2026-05-06 17:13 34.92872 33.43435 6674 ft 257 kts 109°
2026-05-06 17:13 34.92280 33.45485 6475 ft 255 kts 108°
2026-05-06 17:13 34.91696 33.47486 6120 ft 254 kts 109°
2026-05-06 17:13 34.91101 33.49517 5860 ft 255 kts 109°
2026-05-06 17:14 34.90510 33.51540 5598 ft 253 kts 109°
2026-05-06 17:14 34.89919 33.53558 5296 ft 253 kts 109°
2026-05-06 17:14 34.89330 33.55575 4995 ft 252 kts 108°
2026-05-06 17:14 34.88747 33.57568 4704 ft 251 kts 108°
2026-05-06 17:15 34.88162 33.59563 4419 ft 250 kts 109°
2026-05-06 17:15 34.87655 33.61563 4110 ft 243 kts 99°
2026-05-06 17:15 34.87664 33.63515 3717 ft 229 kts 75°
2026-05-06 17:15 34.88173 33.65331 3184 ft 225 kts 66°
2026-05-06 17:16 34.88779 33.67082 2633 ft 223 kts 65°
2026-05-06 17:16 34.89380 33.68819 2087 ft 222 kts 66°
2026-05-06 17:16 34.89978 33.70562 1649 ft 224 kts 67°
2026-05-06 17:16 34.90576 33.72323 1509 ft 225 kts 67°
2026-05-06 17:17 34.91210 33.74064 1496 ft 225 kts 60°
2026-05-06 17:17 34.92129 33.75598 1500 ft 224 kts 53°
2026-05-06 17:17 34.92943 33.77219 1509 ft 225 kts 56°
2026-05-06 17:17 34.94093 33.78446 1507 ft 220 kts 23°
2026-05-06 17:18 34.95555 33.78704 1504 ft 216 kts 349°
2026-05-06 17:18 34.96947 33.78066 1505 ft 215 kts 330°
2026-05-06 17:18 34.98107 33.77006 1520 ft 199 kts 310°
2026-05-06 17:18 34.98614 33.75578 1526 ft 180 kts 268°
2026-05-06 17:19 34.98101 33.74289 1508 ft 167 kts 218°
2026-05-06 17:19 34.97489 33.73821 1515 ft 147 kts 213°
2026-05-06 17:19 34.96466 33.72976 1511 ft 126 kts 216°
2026-05-06 17:19 34.95746 33.72355 1514 ft 127 kts 218°
2026-05-06 17:20 34.95063 33.71666 1507 ft 128 kts 223°
2026-05-06 17:20 34.94414 33.70916 1480 ft 129 kts 225°
2026-05-06 17:20 34.93775 33.70164 1454 ft 130 kts 225°
2026-05-06 17:20 34.93131 33.69392 1299 ft 130 kts 226°
2026-05-06 17:21 34.92498 33.68617 1148 ft 129 kts 226°
2026-05-06 17:21 34.91860 33.67844 993 ft 129 kts 223°
2026-05-06 17:21 34.91213 33.67060 823 ft 132 kts 224°
2026-05-06 17:21 34.90559 33.66266 660 ft 132 kts 223°
2026-05-06 17:22 34.89904 33.65493 549 ft 130 kts 224°
2026-05-06 17:22 34.89273 33.64719 378 ft 128 kts 226°
2026-05-06 17:22 34.88651 33.63946 196 ft 128 kts 225°
2026-05-06 17:22 34.88040 33.63205 37 ft 126 kts 225°
2026-05-06 17:23 34.87520 33.62572 24 ft 82 kts 225°
2026-05-06 17:23 34.87234 33.62222 27 ft 45 kts 225°
2026-05-06 17:23 34.87035 33.61964 29 ft 38 kts 235°
2026-05-06 17:23 34.86959 33.61743 29 ft 23 kts 257°
2026-05-06 17:24 34.86939 33.61643 26 ft 8 kts 255°
2026-05-06 17:24 34.86920 33.61557 23 ft 13 kts 255°
2026-05-06 17:24 34.86892 33.61445 24 ft 14 kts 243°
2026-05-06 17:24 34.86887 33.61372 22 ft 7 kts 295°
2026-05-06 17:25 34.86923 33.61333 24 ft 7 kts 318°
2026-05-06 17:25 34.86950 33.61301 27 ft 4 kts 315°
2026-05-06 17:25 34.86975 33.61272 24 ft 6 kts 315°
2026-05-06 17:25 34.86991 33.61252 24 ft 1 kts 315°
2026-05-06 17:26 34.86993 33.61250 24 ft 0 kts 315°
2026-05-06 17:28 34.86995 33.61242 24 ft 1 kts 291°
2026-05-06 17:28 34.86991 33.61219 26 ft 3 kts 249°
2026-05-06 17:29 34.86975 33.61178 30 ft 5 kts 234°
2026-05-06 17:29 34.86957 33.61153 29 ft 6 kts 229°
2026-05-06 17:29 34.86951 33.61146 24 ft 0 kts 229°